Location: Hylvaty SDH
(49.9612°N, 16.4057°E)
Time: 10:23:04
(UTC+01:00)

Explorer 7 - Visible Passes

Search period start: 23 January 2020 00:00
Search period end: 02 February 2020 00:00
Orbit: 485 x 679 km, 50.3° (Epoch: 22 January)

Date Brightness Start Highest point End Pass type
(mag) Time Alt. Az. Time Alt. Az. Time Alt. Az.
23 Jan 9.2 04:32:32 17° SE 04:32:32 17° SE 04:33:39 10° SE visible
23 Jan 8.8 06:08:52 13° SW 06:09:36 13° SW 06:11:39 10° SSW visible
24 Jan 9.4 04:37:34 14° SSE 04:37:34 14° SSE 04:38:15 10° SE visible
25 Jan 9.6 04:42:40 10° SSE 04:42:40 10° SSE 04:42:40 10° SSE visible
01 Feb 9.3 19:14:10 10° S 19:14:19 11° S 19:14:19 11° S visible
